RH
6 5 5 5 5 4 4 4 4 4 4 4 4 3 3 3 3 3 2 3 2 2 2 2 2 2 2 3 3 3 3 4 5 5 5 6 6 6 7 7 7 7 6 6 6 5 5 5 4 4 3 3 3 2 2 2 2 2 2 1 2 4 7 8 9 13 14 10 9 8 9 7 8 10 10 15 19 26 33 34 36 36 37 39 38 37 34 30
5 5 5 5 5 5 4 4 4 4 4 5 5 5 5 5 4 4 3 3 2 2 2 2 2 3 3 3 3 4 4 5 5 6 6 7 7 7 7 7 7 7 7 6 6 6 5 5 4 4 3 3 3 3 2 2 2 2 2 2 4 6 8 10 10 15 18 13 10 10 11 10 11 13 15 22 26 26 31 33 33 36 37 38 38 37 34 30
6 6 6 6 6 6 6 6 7 7 7 6 6 6 6 6 7 6 6 5 4 4 3 3 3 3 3 4 4 4 5 6 6 7 7 8 8 8 8 8 8 8 7 7 6 6 5 5 4 4 4 3 3 3 3 2 2 2 2 3 6 8 9 11 11 17 22 16 12 13 12 13 15 17 22 29 32 32 35 34 33 36 37 35 36 36 32 28
7 6 6 6 6 7 8 8 9 11 12 14 14 13 10 6 5 6 6 6 5 5 4 4 4 4 4 4 5 5 6 6 7 8 8 9 9 9 9 9 8 8 8 7 6 6 5 5 4 4 4 4 4 3 3 3 3 2 2 5 8 8 10 13 11 16 25 19 15 16 15 17 20 23 25 30 36 37 37 36 35 37 35 33 33 33 29 24
12 9 8 7 6 6 6 7 8 9 12 17 21 23 22 15 8 5 4 4 4 4 4 4 4 4 4 5 5 6 6 7 8 8 9 9 9 10 9 9 9 8 8 7 6 6 5 5 4 4 4 4 4 3 3 3 3 2 3 6 8 8 11 13 12 19 27 25 22 20 20 21 24 29 28 29 35 35 35 34 34 34 32 32 32 32 28 23
21 16 13 11 10 9 8 8 8 7 8 10 15 19 22 21 15 9 6 5 4 4 4 4 4 4 5 5 6 6 7 7 8 9 9 10 10 10 10 10 10 9 8 7 6 5 5 5 4 4 4 4 3 4 3 3 3 3 4 7 8 8 12 14 13 22 28 30 31 23 25 30 31 33 30 33 36 33 33 31 29 29 29 30 30 29 25 21
28 24 19 15 13 13 14 14 14 14 13 12 12 13 14 15 14 11 9 6 5 4 4 4 5 5 5 5 6 6 7 7 8 9 9 10 10 11 11 10 10 9 8 7 6 5 5 4 4 4 4 3 3 4 3 3 2 3 6 8 8 9 13 15 14 21 27 35 39 26 28 41 40 35 32 38 39 35 33 30 28 26 26 26 26 25 22 19
32 29 25 21 17 15 14 15 16 17 18 17 16 15 14 12 10 10 8 7 5 5 4 4 5 5 5 5 6 6 6 7 8 8 9 9 10 10 11 11 10 9 8 7 6 5 5 4 4 4 4 4 4 4 3 3 3 4 7 7 8 9 14 16 13 19 28 40 45 31 34 49 47 39 38 42 40 36 35 33 30 26 24 23 22 22 20 17
33 33 31 29 25 20 16 13 13 13 14 14 14 13 12 10 9 8 7 6 5 5 5 5 5 5 5 6 6 6 6 7 7 8 9 9 10 10 11 11 10 10 8 7 6 5 5 4 4 4 4 4 4 4 3 3 4 6 8 7 7 9 13 16 15 18 27 41 47 38 43 54 50 45 44 44 40 36 35 34 32 26 23 21 19 20 18 17
31 33 34 33 30 27 22 18 15 13 12 11 10 10 9 8 8 8 7 7 6 6 6 6 6 6 6 6 6 6 6 7 7 8 8 9 10 10 11 11 11 10 9 7 6 5 5 5 5 4 4 5 5 6 5 6 7 8 10 10 10 11 13 16 18 19 22 35 46 45 50 56 51 49 48 47 42 38 35 33 31 26 23 20 18 18 18 19
26 28 31 33 33 30 27 25 22 20 17 15 13 12 10 9 8 8 8 8 8 7 7 7 6 6 6 6 6 6 7 7 7 7 8 9 9 10 11 11 11 11 10 8 7 6 5 5 5 5 5 6 6 7 6 7 8 9 12 13 14 14 13 16 19 21 19 26 41 44 48 54 52 51 51 49 44 40 37 34 30 27 25 22 20 20 20 23
23 23 25 28 31 32 31 29 28 27 26 24 22 20 18 16 14 13 12 11 11 10 9 8 7 7 6 6 6 6 6 6 7 7 8 8 9 10 11 11 12 12 11 9 8 7 6 5 5 6 6 7 9 9 9 10 11 13 14 15 18 17 15 17 19 22 20 22 33 36 37 47 53 54 52 47 42 39 36 34 31 29 28 26 24 22 22 26
23 23 23 24 26 29 30 30 30 29 29 28 27 27 25 25 24 22 21 20 19 17 15 13 11 9 7 6 7 6 6 6 6 7 7 8 9 10 11 11 12 12 11 9 9 7 6 6 6 6 7 10 12 11 12 15 17 19 20 20 21 20 20 21 19 21 22 21 27 29 30 37 49 56 53 46 43 40 38 37 35 34 34 31 26 23 25 25
26 27 26 25 25 26 27 28 27 26 25 24 23 23 22 22 22 22 22 22 21 21 20 18 16 14 11 9 10 8 6 6 6 6 7 7 8 9 10 11 11 11 10 10 9 8 7 6 5 7 10 13 14 16 18 18 20 22 23 24 24 22 24 23 21 21 23 23 23 25 26 32 45 56 55 49 47 46 45 43 41 40 37 32 25 22 23 21
29 31 32 31 29 26 26 25 23 21 20 19 17 16 16 15 15 16 16 17 16 17 17 17 17 17 15 12 14 12 7 6 6 6 6 7 8 9 10 11 11 10 9 9 9 8 7 6 6 9 13 16 17 21 23 23 25 24 22 26 26 23 25 25 24 23 23 24 23 23 24 28 40 52 56 53 53 52 49 47 44 40 35 27 23 20 17 18
31 33 36 36 33 30 27 25 23 22 20 16 14 14 14 14 15 16 15 15 15 16 16 17 17 17 16 15 15 14 11 8 6 6 6 7 8 8 9 10 11 10 9 9 9 8 8 7 7 10 15 23 27 27 25 23 26 26 25 30 30 25 25 26 26 26 24 24 24 24 24 26 32 41 49 52 57 58 54 52 46 38 30 24 26 24 17 17
32 33 38 40 38 35 32 29 27 25 20 16 14 15 17 18 18 18 17 17 17 18 18 19 19 18 18 17 15 15 14 10 7 6 7 7 7 8 9 10 11 11 10 10 9 9 8 7 8 12 19 30 36 30 23 23 27 30 35 38 36 31 27 26 27 26 25 25 25 25 24 24 26 30 36 42 50 56 57 55 50 42 32 29 34 28 18 18
33 33 37 40 41 39 35 32 30 27 21 17 18 19 21 23 22 20 19 19 19 19 18 19 19 18 20 19 17 16 15 13 10 7 7 7 7 8 9 10 11 11 11 10 9 9 8 7 8 12 21 33 34 24 19 28 36 40 45 46 42 37 31 27 27 27 26 26 25 25 25 25 24 25 26 30 36 43 49 51 51 49 40 38 39 28 19 17
35 35 36 39 40 39 36 34 32 28 22 20 22 23 23 24 22 21 21 20 20 19 17 18 18 19 21 20 19 17 16 15 12 9 8 7 7 8 9 10 11 11 12 11 10 10 9 9 8 9 23 34 30 22 22 32 38 41 48 50 47 43 36 30 27 27 27 26 26 26 25 25 25 24 24 25 26 30 34 37 43 47 44 43 39 26 20 18
38 37 37 39 40 39 37 35 33 30 23 22 25 24 24 23 22 21 21 21 22 20 18 18 18 20 23 23 22 20 19 16 14 10 8 8 8 9 10 11 12 13 13 13 12 10 9 9 8 13 27 31 25 25 29 33 35 37 40 45 48 46 39 33 29 27 27 26 26 26 25 25 24 24 24 24 24 24 23 24 30 35 37 37 32 22 19 19
42 41 42 43 42 40 38 36 34 30 25 25 26 25 25 24 23 22 22 23 24 22 20 19 18 20 23 24 22 22 22 19 16 12 8 9 9 9 12 13 14 15 15 14 12 11 11 9 10 18 25 24 22 28 32 34 35 32 30 34 42 44 41 38 33 28 28 26 26 26 24 24 24 23 23 23 23 22 21 20 22 23 24 25 24 20 20 19
46 45 45 44 42 40 39 37 34 31 28 28 28 27 27 27 25 24 24 25 24 21 20 20 19 21 24 24 21 20 22 20 16 12 10 9 9 12 15 14 16 18 17 15 13 12 10 9 18 25 22 19 23 28 34 37 34 28 25 26 34 42 41 41 39 32 28 27 26 26 25 24 23 23 22 23 23 22 21 20 19 20 20 21 21 20 20 19
48 47 46 44 42 40 40 38 35 33 31 31 30 29 28 27 26 27 26 27 27 23 20 19 19 22 24 24 23 21 22 20 15 12 11 9 13 16 15 15 18 19 17 15 14 13 10 14 24 25 18 19 26 32 37 38 33 29 27 24 30 40 41 40 44 40 32 30 27 26 26 24 23 23 22 23 22 22 21 20 20 20 20 21 21 21 22 20
49 47 46 45 42 40 38 36 35 34 32 31 30 28 28 28 28 29 29 31 35 30 24 23 22 23 23 23 24 23 23 21 15 13 11 10 16 17 17 19 20 19 19 17 16 13 12 19 23 19 14 19 29 37 40 38 36 35 31 27 30 38 41 40 43 44 40 36 32 29 27 26 25 24 24 24 23 22 21 20 20 20 20 21 21 21 22 20
49 48 45 42 38 35 34 33 32 32 31 31 29 28 29 29 30 31 30 33 39 37 31 27 25 24 23 23 23 23 23 20 14 13 11 11 18 20 21 22 20 21 21 19 17 13 16 22 21 16 16 22 31 40 43 42 41 39 37 36 36 38 41 41 42 45 43 40 37 34 31 28 27 25 25 25 24 22 21 20 20 21 22 21 22 22 20 22
47 44 40 36 34 33 32 32 32 31 32 32 31 30 30 32 34 33 32 35 39 38 33 29 27 28 27 25 24 23 22 18 14 13 10 12 19 21 20 20 22 27 25 20 17 13 22 28 21 18 20 25 33 40 45 47 46 44 44 44 42 41 43 43 43 44 43 41 41 40 37 32 29 28 27 25 25 22 21 23 25 26 26 25 25 22 22 27
40 37 34 33 32 32 32 32 33 33 34 35 34 32 33 35 37 35 33 37 38 35 32 30 30 32 31 31 29 25 22 17 14 14 11 14 21 20 20 22 27 32 27 22 20 20 28 30 22 23 25 26 36 45 50 51 50 49 50 48 44 43 44 45 45 43 41 40 41 42 42 37 32 32 30 26 27 25 27 34 37 38 36 34 31 26 28 38
35 33 33 33 33 32 33 34 35 35 37 38 37 35 36 37 38 36 35 37 37 33 33 35 36 36 35 36 34 29 24 19 14 14 13 17 23 22 22 26 32 36 29 22 24 28 31 28 26 30 29 30 42 51 51 50 49 49 49 47 46 44 44 44 44 43 41 40 39 39 40 39 34 34 33 28 29 33 38 43 44 45 46 45 42 34 38 51
34 33 33 34 34 34 35 37 38 38 39 39 38 36 36 36 36 35 36 36 33 32 36 42 46 45 43 41 39 33 27 20 14 13 14 17 22 23 25 29 32 32 27 23 28 30 30 29 29 30 32 39 48 49 47 49 48 46 46 46 45 44 43 43 42 41 41 38 38 36 37 38 34 33 33 27 30 38 43 45 43 46 48 48 47 40 44 55
34 34 34 35 36 37 39 40 40 39 38 38 36 35 34 35 35 36 37 34 31 33 36 40 46 50 49 46 46 41 30 22 16 13 15 18 21 22 24 27 28 27 24 24 30 31 28 28 28 29 37 46 48 46 47 49 47 45 45 43 42 42 42 43 41 39 39 36 36 34 33 35 33 32 31 29 33 40 44 45 43 45 48 47 47 43 44 48
34 35 37 38 41 42 42 41 39 37 38 37 36 36 35 36 36 37 37 32 29 33 35 36 40 45 46 49 56 53 37 26 18 14 17 22 25 25 25 26 26 27 26 26 31 32 28 26 26 31 41 46 46 46 47 48 47 46 45 43 43 41 40 41 39 37 36 34 34 31 31 35 32 30 32 34 36 40 44 46 44 46 49 48 48 45 42 42
38 40 41 42 43 43 43 42 39 38 40 40 39 38 37 37 37 36 35 31 28 30 32 34 36 38 42 49 61 63 50 35 24 19 22 30 37 40 40 37 33 29 29 32 36 36 32 31 33 36 42 44 45 46 46 46 45 43 43 44 43 42 41 40 38 36 34 33 31 27 32 40 34 31 37 41 41 43 46 46 44 47 50 50 49 47 45 44
44 45 44 43 43 44 45 44 41 41 42 41 40 39 37 36 34 33 32 30 29 29 30 32 33 34 40 48 61 70 64 50 38 30 29 35 46 54 53 46 39 36 36 38 39 38 36 36 36 40 43 45 45 45 46 48 48 47 48 50 50 49 47 43 40 37 33 32 30 25 31 40 37 36 42 45 46 48 48 46 44 45 50 52 51 48 48 47
47 46 44 45 46 47 47 45 43 42 40 37 35 33 31 29 27 27 28 28 29 29 29 31 33 34 38 47 60 72 72 64 56 46 37 36 44 55 60 54 48 45 44 43 40 37 38 38 38 42 46 48 49 52 57 61 61 60 61 64 66 62 55 53 54 50 41 34 30 28 30 34 37 41 47 51 50 49 48 46 43 43 47 52 53 53 51 49
49 48 49 50 50 48 45 42 39 34 28 24 21 19 17 16 16 17 20 22 23 24 23 27 31 34 38 44 56 69 73 71 70 63 54 48 45 47 53 59 60 55 51 49 46 41 39 40 41 43 46 51 57 62 70 74 73 71 68 66 66 63 60 63 63 55 46 39 34 32 31 30 36 47 56 59 55 51 49 46 44 43 44 49 54 56 56 55
52 53 52 51 47 41 36 30 24 18 13 10 9 8 7 6 7 8 9 11 13 14 15 19 24 32 40 42 48 61 68 69 74 79 74 63 54 48 47 53 60 59 54 52 50 45 42 44 46 43 43 51 59 64 70 74 77 77 70 62 63 66 65 65 61 51 41 38 36 35 30 26 38 57 67 66 61 57 53 49 47 46 46 50 52 54 58 58
56 54 49 41 34 27 20 14 10 7 6 5 5 5 5 5 5 5 5 5 6 6 8 11 16 26 37 42 47 55 63 67 70 81 86 79 68 60 55 58 65 66 62 56 51 45 41 45 50 47 44 47 50 57 66 70 71 73 70 67 70 72 64 55 54 50 38 35 38 40 34 27 40 63 70 67 64 62 60 57 56 55 55 56 54 55 57 54
54 46 36 25 17 12 9 7 6 6 6 6 6 6 6 6 5 5 5 5 5 5 5 6 9 17 28 43 55 57 60 69 72 76 85 88 84 77 69 68 74 78 76 67 56 46 41 46 52 49 46 47 44 50 66 70 66 68 73 77 83 87 79 62 51 43 35 33 37 43 43 37 44 60 66 68 68 65 65 64 63 64 62 61 59 57 57 52
42 29 19 11 9 8 7 8 7 7 7 7 8 7 7 7 7 6 6 6 6 6 6 6 6 10 18 39 64 68 62 67 78 83 84 86 90 91 85 79 80 84 86 78 64 51 44 48 57 53 46 48 48 50 63 72 72 75 76 78 86 92 90 76 58 44 37 36 35 37 43 44 46 52 61 71 72 67 67 64 61 59 57 59 58 57 65 63
23 14 10 9 9 9 8 9 8 8 8 8 8 7 7 8 7 8 8 8 8 7 7 7 7 7 10 27 61 82 79 72 79 90 93 93 96 95 87 81 81 85 88 84 72 60 51 49 59 58 46 50 57 55 58 70 80 86 81 78 83 87 83 74 62 50 43 43 43 42 45 46 47 48 55 68 74 72 68 60 51 46 46 50 51 59 80 81
11 9 10 10 10 9 9 9 8 7 7 6 6 6 6 6 6 7 7 8 11 11 10 9 8 8 8 17 47 82 97 92 89 93 95 96 100 99 90 83 85 89 89 87 80 70 58 49 57 64 50 47 59 60 58 66 75 82 83 79 79 83 83 74 64 55 48 50 50 49 50 52 52 53 54 61 69 71 67 59 50 43 40 41 45 60 83 89
9 10 10 10 10 10 9 8 7 6 5 5 5 5 5 5 5 5 5 6 9 12 14 13 11 10 8 11 31 66 96 104 100 98 95 91 92 95 96 95 97 98 95 95 91 81 70 56 58 70 61 49 56 60 60 65 69 74 82 81 74 76 78 71 65 62 60 61 58 53 54 54 53 57 60 63 68 68 67 61 52 42 36 37 39 51 76 96
11 11 11 11 11 9 8 7 6 6 5 5 5 5 5 5 5 5 5 6 6 7 11 13 14 14 12 10 15 36 69 93 102 101 100 98 92 86 87 93 100 102 99 102 100 91 83 69 63 75 75 59 56 59 59 62 66 72 80 79 72 71 71 66 66 69 69 73 74 69 64 58 53 54 58 62 63 61 59 54 47 39 33 38 41 44 68 94
11 11 12 11 9 8 7 7 7 6 6 6 5 5 5 5 5 5 5 6 7 7 8 9 11 13 14 13 11 13 31 61 88 97 97 102 99 86 80 85 96 101 100 100 100 96 92 80 70 79 84 71 62 60 58 57 59 67 75 72 66 65 64 63 69 72 69 72 77 75 70 63 56 50 49 51 53 54 55 56 59 51 40 45 51 52 68 82
12 12 11 9 8 8 8 8 8 7 7 6 6 5 5 5 5 6 8 10 11 11 11 10 10 11 12 13 13 11 11 26 59 83 93 97 92 79 73 76 84 94 97 94 94 98 100 91 84 86 86 77 67 59 58 57 54 58 67 68 61 58 59 62 69 73 72 71 74 74 72 70 62 51 46 48 50 52 57 67 74 64 48 49 54 62 80 83
14 12 10 9 9 9 9 9 9 8 7 7 6 5 5 6 7 8 11 15 18 19 19 18 16 15 15 13 12 14 11 10 25 51 73 83 81 76 74 72 73 82 91 90 85 90 99 99 95 95 92 86 76 62 59 62 57 55 62 66 65 60 57 56 59 63 65 66 72 78 79 78 72 60 51 48 44 44 53 67 75 67 60 64 65 71 89 93
14 12 10 10 11 10 10 10 10 10 9 7 6 6 5 7 10 12 15 19 23 23 23 23 22 21 21 20 18 18 19 17 14 20 35 50 58 62 64 65 69 75 82 86 83 85 96 100 99 99 94 90 86 72 62 62 61 57 58 64 68 69 65 60 57 53 50 55 68 80 84 82 75 65 60 57 52 51 61 72 74 71 72 81 87 87 90 93
13 11 11 11 12 11 12 13 12 11 10 8 7 6 5 8 12 14 17 21 24 25 25 25 25 25 24 25 26 25 27 31 28 19 16 22 31 37 40 48 58 64 75 91 95 93 96 96 95 98 95 91 93 87 73 66 64 60 58 61 68 74 75 73 69 60 50 50 61 74 81 79 72 70 73 75 71 69 73 76 77 77 75 80 92 98 97 96
13 12 12 12 13 14 14 15 14 13 11 9 8 7 6 8 12 15 19 23 28 32 34 34 33 32 30 28 28 30 32 38 43 36 22 15 19 25 30 34 39 47 65 86 95 95 96 93 88 91 95 95 99 99 90 81 75 69 63 62 66 76 83 84 84 77 65 56 55 61 71 74 75 81 87 85 80 76 76 77 78 79 78 78 83 87 90 99
13 13 14 13 15 16 16 16 15 15 14 11 9 9 7 7 10 16 22 28 32 37 39 41 43 45 43 35 28 28 31 38 50 53 39 24 18 21 30 32 31 38 52 66 76 80 84 88 86 83 84 87 92 97 97 93 89 82 73 65 65 73 83 87 88 86 80 71 61 56 59 67 77 86 88 84 79 76 76 77 78 82 82 80 80 77 79 89
14 14 14 15 17 18 18 18 17 17 17 15 11 10 10 9 8 11 16 24 32 38 39 40 42 48 50 41 29 24 29 42 56 63 58 44 28 22 30 34 33 39 49 65 83 87 82 83 82 76 74 75 79 87 93 91 90 89 84 74 66 68 76 82 86 88 88 86 77 67 64 69 75 77 77 75 74 75 76 72 69 75 76 70 71 80 84 84
14 14 15 17 19 20 20 20 20 20 20 19 15 12 11 11 10 9 10 15 23 30 35 39 45 51 52 46 35 27 33 49 61 64 67 64 49 33 30 33 37 42 47 60 84 97 97 94 86 76 74 75 76 83 92 93 90 90 89 82 74 71 71 74 79 85 91 95 93 86 82 80 76 70 67 66 67 69 71 66 60 63 66 64 70 84 91 84
Wind_Speed
32 32 32 32 31 31 31 31 31 31 31 31 30 30 30 29 29 29 29 30 30 30 31 31 30 30 30 29 29 28 27 27 26 26 26 26 25 26 26 26 26 26 26 27 27 27 27 27 27 27 27 27 27 27 28 28 28 28 28 28 26 20 17 19 22 24 26 27 26 29 32 33 35 36 37 38 39 39 38 37 36 35 33 30 28 27 27 29
31 31 31 31 31 31 30 30 30 30 30 30 30 30 30 29 29 29 29 29 30 30 30 30 30 30 29 29 28 27 27 26 26 26 25 25 24 25 25 25 25 26 26 26 27 27 27 27 27 27 27 27 27 26 27 27 27 27 27 28 22 16 16 21 24 26 28 28 28 31 33 34 36 37 38 39 40 40 39 38 36 33 32 31 30 28 28 30
31 31 31 31 31 31 31 31 30 30 29 29 29 29 29 30 30 30 30 30 30 30 30 30 30 29 29 28 28 27 26 26 25 25 25 24 24 24 25 25 25 26 26 26 27 27 27 27 27 27 27 27 26 26 27 26 27 27 27 26 17 14 19 23 26 29 30 30 31 32 34 36 37 39 40 41 42 41 39 38 36 34 33 33 32 30 30 32
30 30 31 31 32 32 32 32 32 32 32 31 30 29 29 29 29 30 30 30 30 30 30 30 30 29 29 28 28 27 26 26 26 25 25 24 24 24 24 24 25 26 26 26 27 27 27 27 27 27 27 26 26 26 26 25 26 26 26 23 16 17 22 24 28 32 33 33 33 34 35 37 39 40 42 43 43 43 41 39 37 35 35 35 34 32 33 34
29 30 30 31 31 32 32 32 32 32 32 33 33 32 31 30 29 29 29 30 30 30 30 30 30 29 29 28 28 27 27 27 26 26 25 25 24 24 24 24 25 26 26 26 26 27 26 26 27 26 26 26 26 25 25 25 26 26 25 22 18 19 22 26 30 34 35 35 35 36 37 39 40 41 43 44 44 44 43 40 37 36 36 36 34 34 34 31
29 29 30 30 31 31 32 32 31 31 31 31 31 32 32 32 31 30 30 30 30 30 30 30 30 30 29 29 29 28 28 28 27 26 26 25 25 25 24 25 26 26 26 26 26 26 26 26 26 26 26 26 26 25 25 25 26 26 24 21 19 19 24 28 32 36 38 38 38 38 38 39 40 42 43 43 43 44 43 41 38 37 36 35 34 34 32 27
29 29 29 30 31 31 32 32 32 32 32 31 31 31 31 32 32 31 30 30 30 31 31 30 30 30 30 29 29 29 29 29 27 27 27 26 25 25 25 25 26 26 26 26 26 26 26 26 26 26 26 26 25 25 25 26 26 25 23 21 20 21 25 30 34 38 40 40 39 39 39 39 40 43 43 42 43 43 42 41 39 37 36 35 34 34 30 26
30 30 30 30 30 31 31 32 32 33 33 33 33 32 32 32 32 32 31 31 31 31 31 31 30 30 30 30 30 30 30 29 28 28 28 27 26 25 25 26 26 26 26 26 26 26 26 26 27 27 26 26 25 25 26 26 26 24 22 22 22 22 26 32 35 38 41 41 40 40 39 38 40 43 42 41 42 42 41 41 39 37 35 34 34 33 29 25
31 31 31 30 30 30 31 31 31 32 32 33 33 33 33 33 32 32 32 31 31 31 31 31 31 31 31 30 30 31 31 30 29 29 29 28 27 27 26 27 27 27 27 27 27 26 26 27 28 27 26 26 25 25 25 25 25 23 21 22 22 22 26 32 35 37 41 42 41 41 39 36 40 43 42 41 42 41 40 40 38 37 35 35 36 33 29 26
32 32 31 31 30 30 30 30 30 31 31 32 32 32 32 32 33 33 32 32 32 32 32 32 32 31 31 31 31 32 31 30 30 30 30 29 28 28 28 28 28 28 28 28 27 27 28 28 28 27 26 25 24 24 25 24 24 23 21 21 21 21 24 31 33 34 38 42 42 42 39 37 41 42 40 40 40 40 40 39 38 38 37 37 35 31 28 26
33 33 33 32 31 31 30 30 30 30 30 31 31 31 32 32 33 33 33 33 33 33 32 32 32 32 32 32 32 32 31 31 31 31 31 31 30 30 29 29 28 28 29 29 28 28 28 29 28 27 26 25 24 24 25 24 23 23 21 20 20 20 22 27 30 31 36 40 42 43 41 40 42 41 38 38 39 39 39 38 38 38 37 35 32 29 26 24
34 34 34 34 33 32 32 31 31 31 31 31 31 31 31 32 32 33 33 33 33 33 33 33 33 33 33 33 33 33 32 32 32 32 32 32 32 31 31 30 29 29 29 30 29 29 29 29 28 27 27 25 24 24 25 24 22 22 21 18 18 20 20 23 26 28 33 37 39 44 45 43 42 39 38 39 40 39 39 39 38 35 33 31 30 28 27 25
33 33 33 33 34 34 33 33 33 33 33 33 33 33 33 33 34 34 34 34 33 33 33 32 32 32 32 33 34 33 32 32 32 33 34 34 33 32 31 31 31 31 30 30 30 29 29 29 28 28 27 25 24 24 24 22 21 21 21 18 17 19 18 20 24 27 31 33 36 42 46 46 43 39 38 40 40 39 39 37 34 30 28 29 30 28 27 27
32 32 32 32 33 34 34 34 35 35 36 36 36 36 36 36 37 36 36 35 35 34 34 33 32 32 30 32 35 33 31 32 33 33 34 34 33 32 32 32 32 32 31 30 30 30 30 29 29 28 27 26 24 23 22 22 21 20 21 19 17 19 18 19 25 27 28 30 34 41 45 45 44 41 41 41 40 38 36 33 30 26 26 27 27 26 26 26
32 31 31 31 31 32 33 34 34 34 34 35 35 36 36 36 36 35 35 34 34 34 33 32 31 32 30 31 35 34 31 32 33 33 33 33 34 34 34 33 32 31 31 30 30 30 30 30 29 28 27 26 25 23 22 22 21 20 21 19 19 20 18 20 25 26 27 29 33 39 43 43 42 43 44 44 42 39 35 31 27 26 26 25 24 23 24 25
32 31 30 30 30 30 31 32 32 32 32 32 33 32 32 32 31 31 31 31 31 31 30 30 29 30 29 29 34 35 32 32 32 33 33 33 35 35 34 33 32 31 31 30 30 31 30 30 29 29 28 26 24 23 23 22 21 21 22 20 20 19 18 21 23 24 26 28 31 36 41 41 39 41 44 45 44 41 37 31 27 27 27 26 24 23 23 23
31 31 30 30 30 30 30 31 30 31 31 31 30 29 28 28 28 28 29 29 29 28 28 28 28 29 29 29 31 33 33 32 31 31 32 34 36 35 34 33 32 32 31 30 30 31 30 30 30 29 28 26 25 24 23 21 21 22 23 21 20 19 18 21 22 24 26 27 30 35 38 38 36 38 42 45 45 43 40 36 33 31 31 29 27 24 23 21
31 31 30 30 30 30 31 31 31 31 31 30 29 28 27 27 27 28 28 28 28 28 28 27 28 28 28 28 30 32 33 32 31 31 32 34 35 35 35 33 32 32 31 31 30 30 30 30 30 30 29 27 25 24 22 21 23 24 24 23 21 20 19 20 21 24 27 29 31 33 36 35 33 34 37 41 44 44 43 41 40 38 37 34 30 26 23 21
31 31 31 31 31 31 31 31 31 31 32 30 28 28 28 27 28 28 28 28 29 29 28 27 28 28 28 29 30 31 32 32 32 32 32 33 34 34 34 33 32 31 31 30 29 30 30 30 31 31 29 26 24 23 23 24 26 26 26 25 23 21 19 19 22 25 29 31 32 33 34 33 31 31 34 37 40 41 42 42 42 42 41 38 33 27 24 22
31 31 31 31 31 31 31 31 31 31 32 30 28 28 28 28 28 28 28 29 29 29 28 28 27 28 28 29 30 30 31 31 31 32 32 32 32 32 33 32 31 30 30 29 29 29 30 30 31 29 27 25 25 25 25 26 26 27 28 27 26 23 19 19 22 26 29 32 32 33 34 32 30 30 32 35 38 40 40 41 41 41 40 38 34 28 25 22
31 31 30 30 30 30 30 31 31 31 31 29 28 27 27 28 28 28 27 27 28 28 28 28 28 27 26 28 30 30 30 31 31 31 31 30 31 31 31 31 30 28 28 28 29 29 29 29 28 26 26 26 26 27 27 26 26 27 28 28 27 24 19 19 23 26 29 32 31 30 32 30 28 29 31 33 36 38 39 39 38 36 36 34 31 27 25 22
30 30 29 29 29 29 29 30 29 30 29 28 27 26 26 27 28 28 26 24 25 27 27 27 27 25 25 28 31 31 31 30 30 31 31 30 30 28 29 30 29 28 28 29 30 29 28 27 24 24 25 26 27 28 28 26 25 25 25 27 27 23 21 20 22 25 28 30 28 28 30 28 25 27 29 32 34 36 36 35 33 32 31 29 27 25 25 22
29 29 28 28 28 28 27 28 27 27 27 26 25 26 26 27 27 26 25 21 21 26 27 25 24 24 25 29 31 32 31 28 28 30 29 28 27 27 28 28 28 28 28 29 28 27 26 24 24 25 26 28 28 28 27 26 24 23 23 25 24 22 23 22 22 24 27 27 24 25 27 25 22 24 27 30 32 32 32 31 30 30 29 27 24 24 24 21
28 27 26 26 26 26 25 25 25 25 25 24 25 26 26 27 26 24 24 20 18 23 27 25 23 24 26 28 29 29 29 28 27 27 27 26 26 26 27 28 28 28 27 26 25 26 24 23 26 27 27 29 29 27 26 24 22 22 21 21 20 21 23 23 24 25 27 26 22 23 25 22 20 23 25 27 28 28 30 31 29 29 29 26 25 26 25 22
26 25 25 24 24 24 23 23 23 23 23 23 24 26 26 26 24 23 23 21 18 20 25 26 25 25 25 26 27 27 28 26 22 23 25 25 25 25 26 27 27 25 24 24 24 25 23 24 26 27 28 29 28 25 23 22 21 19 19 18 19 21 22 23 26 27 27 25 24 24 24 21 20 23 24 24 25 26 29 30 29 29 28 26 26 27 25 21
24 23 23 23 23 22 22 22 22 22 23 23 24 25 25 24 23 23 23 21 18 19 23 26 27 27 25 24 25 26 27 24 20 23 26 25 24 25 26 26 25 23 23 23 24 24 22 23 25 26 28 29 26 23 22 22 20 18 18 19 20 22 23 24 27 29 27 26 26 27 26 22 20 22 22 22 24 27 29 30 28 27 26 25 25 26 23 19
22 22 22 21 21 22 21 21 21 22 22 22 24 25 25 23 22 23 23 22 20 21 24 26 27 27 25 23 23 24 25 24 22 24 25 23 25 27 27 26 23 22 22 23 24 22 20 22 26 26 27 27 25 22 22 22 20 19 20 22 21 22 25 27 30 30 29 28 28 27 27 25 22 22 22 21 24 29 29 26 24 23 22 21 23 22 19 18
21 21 21 20 21 22 21 20 22 23 22 22 24 25 24 23 23 23 23 22 22 23 24 24 24 24 23 22 21 21 23 25 25 26 26 25 27 28 28 25 22 21 23 24 24 21 21 24 27 26 27 27 25 23 24 23 21 21 23 23 23 24 27 29 31 31 30 30 28 27 28 27 23 23 23 21 25 30 27 23 22 21 19 17 18 18 18 19
20 21 20 19 20 22 21 20 22 23 22 22 23 24 23 23 23 23 22 22 23 23 23 23 22 22 21 20 20 20 22 25 26 28 28 27 28 28 27 25 24 25 26 26 24 23 24 26 27 28 28 27 24 25 26 23 22 23 24 24 25 26 27 29 31 31 32 33 27 25 28 27 26 25 23 22 27 31 28 24 23 21 19 17 16 17 20 20
20 21 20 19 20 21 21 21 22 23 22 22 22 23 22 22 23 22 21 22 23 23 23 23 22 21 20 20 20 19 21 25 27 28 28 27 28 29 28 28 28 28 28 27 24 23 25 25 27 29 28 25 25 26 25 23 23 24 24 24 25 26 26 28 30 31 34 32 24 23 28 28 28 26 22 22 28 34 29 24 23 20 18 16 15 17 21 21
20 20 19 19 20 21 21 21 22 22 21 21 21 21 21 21 22 20 19 22 23 22 23 23 22 21 20 21 20 19 21 24 27 28 28 27 28 29 29 29 29 28 27 25 22 22 24 24 26 27 25 24 25 26 25 24 24 24 24 25 25 26 26 29 31 32 32 27 21 24 29 30 30 27 23 23 29 33 30 25 23 19 17 17 17 18 21 21
20 20 20 20 20 20 21 21 21 20 19 19 20 20 20 20 20 19 19 22 24 23 23 22 21 21 21 22 21 19 21 24 26 28 28 28 27 26 25 26 26 26 25 22 20 22 24 24 24 24 24 25 26 26 25 24 24 24 25 26 26 26 27 29 30 31 30 23 21 26 29 31 32 28 24 24 28 31 29 26 24 20 18 19 20 22 23 23
20 21 20 20 19 19 19 19 20 19 18 18 19 19 20 19 18 17 20 24 24 22 21 21 22 22 22 22 23 22 22 24 26 27 29 29 27 24 23 24 25 25 25 23 23 25 26 25 25 24 23 24 25 24 24 23 24 25 26 26 26 26 27 28 29 30 28 23 24 28 29 32 32 30 27 26 28 29 27 27 26 23 20 19 21 24 25 26
20 20 20 19 18 17 17 18 19 19 18 18 19 19 20 19 18 19 22 24 23 21 20 21 22 23 22 23 24 25 24 25 26 27 28 29 28 25 23 23 24 24 24 24 25 26 26 26 25 24 23 24 23 22 23 25 26 26 27 26 25 25 26 26 27 28 27 26 29 29 29 32 33 31 28 26 28 29 27 27 28 26 24 22 22 24 25 27
19 20 19 18 17 16 16 17 18 18 18 18 18 19 19 19 20 21 23 24 23 21 20 21 23 24 23 23 25 27 27 26 27 27 28 28 28 26 24 23 24 24 24 25 25 25 26 27 26 25 25 25 24 23 25 28 28 28 28 28 26 24 24 25 25 25 25 27 30 30 29 31 33 32 30 27 28 28 28 29 28 28 28 26 26 26 26 28
19 19 18 16 16 16 16 17 17 18 18 17 18 18 19 20 21 21 22 23 22 20 20 22 24 25 25 25 25 27 29 28 28 28 28 29 28 27 26 25 26 26 27 26 26 26 27 26 26 26 26 26 26 26 27 28 28 28 28 27 26 25 24 24 24 24 24 25 28 30 29 31 33 33 32 29 28 28 29 30 30 30 29 28 27 26 27 29
18 17 16 15 15 16 16 16 16 17 17 16 17 17 18 19 20 20 20 21 20 19 19 22 25 26 27 27 26 28 29 29 29 29 28 28 27 26 25 25 26 28 28 28 28 28 27 26 26 27 27 28 28 29 29 28 28 27 26 25 25 25 24 23 23 22 23 24 25 27 28 31 33 34 33 31 29 29 30 30 30 30 30 29 29 28 29 30
17 15 15 15 15 15 15 14 15 15 15 15 16 16 17 18 19 19 19 19 19 18 19 22 25 27 28 29 29 29 29 29 30 30 30 28 26 26 26 26 27 28 28 27 27 28 27 25 27 29 29 29 30 31 30 29 27 26 25 25 24 22 22 23 23 23 22 23 24 24 26 30 32 33 33 32 30 30 31 32 31 31 32 32 32 32 33 33
15 14 14 14 14 14 13 13 13 13 13 14 15 16 16 18 19 19 19 20 20 20 20 22 25 27 29 30 30 30 30 30 30 30 30 30 28 27 27 27 28 28 28 27 27 27 26 25 27 29 30 30 31 32 31 29 27 26 27 27 26 23 22 23 24 23 22 22 23 23 25 28 30 33 35 34 32 30 30 32 31 31 32 33 34 34 35 37
13 13 13 13 13 13 12 11 11 11 12 13 14 14 16 17 18 19 19 20 21 22 22 23 25 27 29 30 31 31 32 31 30 30 30 29 28 28 28 28 29 29 29 28 28 28 26 25 27 29 30 30 31 33 32 30 28 27 28 29 29 26 25 25 25 24 23 24 24 25 25 26 27 31 34 34 34 32 30 30 30 30 31 32 33 32 33 37
12 12 12 12 12 11 10 10 10 10 11 11 12 13 15 16 17 18 19 20 22 23 24 24 26 27 29 31 32 33 33 32 31 31 30 30 29 29 29 29 29 29 28 29 29 29 27 27 27 27 29 30 32 33 32 31 30 29 30 30 30 28 27 27 27 26 25 25 26 26 26 25 25 28 31 33 34 33 32 31 31 31 31 32 33 30 29 32
12 12 11 11 11 10 10 9 9 9 9 9 10 11 13 14 16 17 19 20 22 23 24 25 26 28 30 31 33 34 35 35 33 32 31 31 31 31 29 27 27 27 27 27 29 29 28 27 27 27 28 30 32 33 32 30 30 32 32 31 30 31 30 29 28 27 27 27 26 26 26 26 25 27 29 31 32 33 33 32 32 32 31 30 31 30 25 23
11 11 11 11 10 9 9 8 8 8 8 8 9 11 12 14 16 18 19 20 22 24 25 25 26 28 30 31 33 35 36 37 36 35 34 33 32 32 31 29 27 26 25 24 26 29 29 28 27 27 28 30 31 32 32 31 30 33 34 32 31 32 32 30 29 28 28 28 28 28 28 27 27 27 28 28 29 30 30 30 29 30 29 27 27 26 21 19
11 11 10 10 9 8 7 7 7 8 8 9 11 12 14 15 17 19 20 20 21 23 24 25 26 28 29 30 31 33 36 37 38 38 37 36 35 34 34 32 30 28 25 23 23 26 28 29 29 28 29 31 33 34 34 32 30 32 34 33 31 32 32 32 30 29 29 29 29 29 29 28 27 27 28 27 26 25 24 23 22 24 25 23 22 23 23 24
11 10 10 9 8 7 7 7 7 8 9 10 11 13 14 16 17 18 17 16 15 16 18 21 24 26 28 30 31 32 33 35 37 39 40 39 38 36 35 34 33 32 30 26 23 23 25 28 30 29 31 33 35 35 35 33 31 31 33 34 33 32 32 33 32 31 30 29 29 29 28 26 25 25 26 26 24 22 20 19 18 18 20 21 21 21 22 28
11 10 10 9 7 7 7 7 7 9 10 11 12 13 15 16 17 16 14 13 11 11 13 15 18 20 24 27 29 31 31 33 35 38 40 41 41 39 36 35 35 35 34 31 27 25 24 25 27 28 30 33 36 35 34 34 32 32 33 34 34 33 33 33 34 33 33 31 30 29 28 26 24 23 23 24 23 22 20 19 17 17 18 19 21 20 20 27
10 10 9 8 7 7 7 6 7 9 10 11 12 13 14 16 15 14 14 13 12 12 12 13 14 16 18 21 25 28 30 31 33 35 38 40 42 41 39 36 34 34 35 33 30 27 24 23 24 25 26 29 35 37 35 33 33 32 32 33 33 34 33 33 34 34 34 33 32 30 29 27 25 24 22 21 22 21 20 19 18 17 16 17 19 21 22 25
11 10 9 8 7 6 6 6 8 10 11 11 12 13 13 14 13 13 14 14 13 13 13 13 14 14 15 17 20 23 26 29 31 33 35 37 39 40 40 38 35 33 32 32 31 28 24 21 21 22 21 22 29 35 34 32 32 31 31 31 32 33 33 32 33 33 34 34 33 31 30 28 27 25 23 21 21 21 19 18 16 16 17 16 15 16 20 23
11 10 9 8 6 5 6 7 8 9 10 11 11 12 12 12 12 11 12 14 14 13 13 14 15 16 16 17 18 21 24 27 30 32 34 36 37 38 38 39 38 35 32 30 30 29 26 21 19 18 17 16 21 28 31 32 32 32 32 32 32 32 32 32 32 32 33 34 34 33 32 30 29 26 23 21 21 20 18 17 16 16 17 16 13 11 13 18
11 10 9 8 5 5 6 7 7 7 8 9 10 11 11 12 11 11 12 14 14 14 14 14 16 16 17 17 18 21 24 26 29 31 32 34 35 36 36 37 37 36 33 30 30 30 29 26 22 19 17 16 18 22 27 30 32 33 33 33 33 32 32 32 32 32 32 32 33 33 33 32 29 26 24 22 20 19 17 15 15 15 16 16 16 15 14 15
11 10 9 6 5 6 7 7 6 6 7 9 10 10 11 11 11 11 12 15 16 16 16 16 16 16 17 16 17 20 23 26 29 31 31 31 32 33 35 35 35 35 32 28 25 25 27 27 26 24 21 19 18 20 24 28 31 33 34 34 34 34 33 32 32 33 32 32 33 33 32 32 30 28 27 25 22 20 18 17 17 17 17 18 19 18 18 19
11 10 8 5 5 6 6 6 6 6 7 8 9 9 9 10 11 12 13 13 15 16 16 17 17 16 16 14 14 16 21 25 28 29 31 31 31 32 32 31 31 32 32 29 25 23 22 22 23 25 25 23 21 21 22 24 28 31 33 34 35 35 34 33 33 33 33 32 33 33 33 32 31 31 30 28 26 23 22 21 21 21 21 20 20 20 22 22
Wind_Direction
254 253 253 252 252 252 252 252 252 253 253 253 253 253 253 253 252 252 251 251 250 250 251 253 255 257 259 261 262 263 263 263 263 263 264 266 267 268 269 270 271 272 274 275 275 275 275 275 274 273 272 270 269 267 266 265 265 264 263 263 262 256 241 231 226 221 225 229 229 229 230 230 229 228 228 229 229 226 226 229 231 234 237 241 245 249 254 258
254 253 252 252 252 251 251 251 251 252 252 253 253 253 253 253 253 253 252 252 252 252 254 255 257 259 261 262 263 263 263 263 263 263 264 266 267 268 270 271 272 273 274 275 275 275 275 275 274 273 272 270 269 267 266 264 263 262 260 260 259 249 231 224 220 216 219 225 226 225 227 229 228 227 227 226 227 227 225 226 229 232 235 239 243 248 252 257
254 254 253 253 252 252 252 251 251 251 252 253 253 253 254 254 253 254 254 254 254 254 255 257 258 260 261 262 262 262 262 262 263 263 265 266 267 269 270 272 273 274 274 274 275 275 275 274 274 273 272 271 270 268 266 264 262 260 258 258 254 237 223 216 217 215 215 221 224 223 224 227 227 227 226 225 226 228 226 227 230 232 235 238 242 247 251 256
255 254 254 254 254 254 254 254 254 254 254 253 254 254 255 255 254 254 254 255 255 255 256 257 258 259 260 261 261 261 261 262 262 263 265 266 267 269 271 273 274 274 274 274 274 274 274 274 273 272 272 271 269 267 264 263 261 259 257 255 245 230 218 212 218 216 213 219 222 221 222 224 226 227 227 226 225 226 227 227 230 233 237 240 243 248 251 256
257 256 255 255 255 255 255 256 256 256 256 255 255 255 255 256 255 255 255 255 255 256 256 257 258 259 260 260 260 260 261 261 262 263 264 265 267 269 272 273 274 274 274 274 274 273 273 272 272 271 270 269 267 265 263 263 262 259 256 253 242 228 215 213 219 215 213 218 220 221 221 222 224 226 228 228 227 227 227 227 229 234 239 242 245 249 252 258
259 258 257 256 256 255 255 256 256 256 256 256 256 255 255 255 255 255 255 255 255 256 256 257 257 258 258 259 259 260 260 260 261 263 263 265 267 270 272 273 274 274 274 274 274 273 272 271 271 270 268 266 265 263 263 264 263 260 255 251 241 224 212 214 217 213 214 216 217 222 222 221 223 225 229 230 230 231 230 230 232 235 240 245 248 252 255 260
261 259 258 257 257 256 256 256 256 256 255 255 256 255 255 255 255 255 255 255 256 256 256 256 256 257 258 258 259 259 259 260 261 261 263 265 267 269 271 272 273 273 274 273 273 272 271 271 269 267 265 265 264 263 263 265 264 259 254 250 241 224 210 214 218 215 216 214 215 223 223 221 223 226 229 229 231 234 234 235 236 239 243 248 252 256 259 260
261 261 260 259 258 258 257 256 256 255 255 255 255 255 255 255 254 254 254 255 255 255 255 255 256 256 257 257 258 258 258 259 260 260 262 263 264 266 268 270 271 272 272 271 271 270 270 269 266 265 264 264 265 263 264 266 265 260 254 250 242 226 210 214 221 217 217 214 214 223 224 221 224 227 228 229 231 234 236 238 239 243 246 251 256 260 262 259
261 261 261 260 259 258 258 257 256 255 255 254 254 254 254 254 253 253 253 254 254 254 255 255 255 256 256 256 257 258 258 258 259 260 260 260 261 262 264 267 269 270 270 270 270 269 267 266 265 265 265 266 267 265 266 267 266 262 256 253 246 231 214 216 222 219 219 217 215 221 222 221 226 228 228 229 232 234 237 239 241 246 250 256 259 263 265 259
260 260 261 261 260 259 258 257 256 255 255 254 254 254 253 253 252 252 252 252 253 253 254 255 255 255 256 256 256 257 258 258 258 259 259 259 259 260 261 263 266 268 269 269 269 267 266 266 266 268 268 267 265 264 266 265 264 262 256 253 250 238 221 218 222 221 221 220 218 220 219 222 229 230 230 231 234 237 239 241 245 250 255 259 263 267 270 266
259 259 259 260 260 259 258 258 257 256 255 254 254 254 253 253 252 251 251 251 252 252 253 254 254 255 256 256 256 257 257 258 258 258 258 258 258 258 259 260 264 267 268 268 267 267 266 266 267 267 265 263 262 262 264 262 262 262 258 254 251 244 229 222 224 224 225 225 222 222 220 223 230 232 232 234 236 239 242 245 249 253 257 262 267 272 273 272
260 259 259 259 259 259 257 257 256 256 255 255 255 254 254 253 253 252 251 251 252 252 252 253 254 254 255 256 256 256 257 257 257 257 257 256 256 257 258 260 263 265 265 265 266 266 265 266 266 264 263 262 260 260 261 262 262 263 261 256 251 248 238 228 227 226 228 228 227 228 225 224 229 234 235 237 240 242 244 248 251 255 259 265 270 274 274 272
261 261 260 259 259 258 257 256 255 255 255 255 255 254 254 254 253 253 252 253 253 253 253 254 254 255 256 257 255 256 257 256 256 256 257 257 257 258 259 259 260 261 261 262 264 265 265 265 264 262 262 260 257 257 259 260 259 260 260 257 250 248 243 234 230 227 227 228 229 233 232 227 227 233 237 239 241 243 246 248 251 256 262 267 271 275 277 273
263 262 262 261 259 258 258 257 256 256 255 255 255 255 255 255 255 255 255 256 256 256 256 256 257 258 260 261 257 255 257 257 257 256 256 257 257 257 257 256 256 258 259 261 263 264 264 263 262 260 258 256 254 255 255 254 254 255 256 255 247 243 239 234 232 229 227 227 228 233 236 232 229 232 237 239 241 242 244 247 249 255 260 266 271 276 278 275
264 263 263 262 261 259 258 258 258 257 257 256 255 255 255 256 256 257 258 259 259 259 259 260 260 259 262 264 259 257 258 257 258 257 256 256 255 254 254 254 254 255 256 258 260 261 263 263 260 256 253 252 252 250 250 251 252 253 254 253 247 240 233 231 234 232 230 228 228 232 237 235 231 233 237 238 241 242 242 244 246 250 253 259 268 275 275 273
263 264 264 263 262 260 259 259 258 257 257 255 254 254 255 257 258 259 260 260 260 260 261 261 261 260 261 263 260 259 258 257 258 258 257 254 253 252 253 253 252 252 253 255 258 260 262 262 258 253 251 248 247 247 247 247 250 252 253 251 248 244 233 231 235 236 233 232 232 234 237 237 233 234 237 238 241 243 243 244 245 247 248 253 266 276 273 269
262 263 263 263 262 260 259 258 258 258 257 255 255 256 257 259 260 260 260 260 261 261 261 261 260 259 259 259 259 259 259 258 257 256 256 254 252 251 251 251 251 251 253 255 257 259 261 260 255 252 249 244 242 245 246 248 250 251 252 250 249 246 236 231 236 238 236 234 235 238 239 239 236 236 240 242 243 244 244 244 245 247 247 254 266 272 268 263
261 262 262 262 261 260 259 259 259 259 258 257 258 259 259 260 260 260 261 262 262 261 260 259 259 259 259 259 258 257 257 258 257 255 254 254 253 252 250 250 250 252 253 254 256 257 259 258 255 251 246 242 243 245 247 247 246 248 251 251 248 244 237 231 232 236 237 235 236 239 241 241 238 237 241 244 246 247 246 245 245 247 248 255 264 265 259 254
261 261 261 261 261 260 260 260 260 259 259 258 259 260 260 259 259 260 261 262 263 262 261 261 261 262 263 262 260 259 258 259 259 258 255 254 253 252 251 251 251 251 252 254 254 255 257 256 255 252 245 243 245 245 245 245 245 246 248 250 248 243 238 234 233 235 237 236 235 238 241 242 240 238 239 244 247 248 249 248 247 248 250 256 261 258 252 246
261 261 261 260 260 260 260 260 259 259 259 259 259 259 260 261 261 261 262 263 265 265 264 263 263 264 266 265 263 262 261 259 259 258 256 254 254 252 252 251 251 251 253 254 255 254 255 256 255 250 243 242 243 243 245 246 248 247 246 247 247 244 237 236 238 238 239 240 238 239 242 242 241 240 241 244 248 250 252 252 252 253 255 258 259 253 247 241
261 261 260 260 259 259 259 258 258 259 259 259 260 260 261 263 263 263 264 266 266 265 264 264 262 262 265 265 264 262 260 259 258 257 256 254 253 251 250 249 249 251 251 252 253 253 254 256 254 245 240 240 240 242 246 248 249 248 247 245 246 246 238 236 241 241 242 244 241 243 245 244 242 241 244 246 249 252 253 254 255 256 257 256 254 249 243 237
261 260 260 259 258 258 258 258 258 258 259 260 261 262 262 262 263 264 265 268 268 264 261 262 263 263 262 261 261 259 257 257 256 254 254 252 250 248 247 247 247 248 248 250 251 252 253 254 250 241 237 235 237 242 245 246 247 248 248 245 244 246 239 234 241 245 246 247 245 245 248 245 241 241 243 245 248 251 253 255 255 252 251 249 247 246 242 236
260 259 259 258 257 257 257 257 258 259 260 261 262 262 263 262 262 264 264 266 268 266 263 262 262 263 261 258 259 259 257 254 252 252 252 249 247 245 245 246 245 245 247 250 252 253 253 250 243 237 232 230 234 239 241 243 247 249 250 247 242 244 242 234 239 246 248 250 247 245 247 244 239 238 240 243 246 250 252 253 250 246 245 243 239 237 233 228
258 258 258 256 255 255 255 256 257 259 261 262 262 262 263 264 264 265 265 263 263 266 267 265 261 259 260 259 259 261 260 254 248 249 249 245 242 242 243 242 242 244 248 250 251 251 251 244 239 236 230 228 232 236 241 245 248 250 252 252 243 240 242 237 238 243 246 250 248 245 246 239 232 234 238 243 246 247 249 250 248 245 243 239 231 228 228 224
257 256 255 253 253 253 254 256 258 259 261 262 263 263 264 266 267 266 264 262 261 263 266 266 263 259 257 258 259 258 259 254 245 242 243 239 238 239 239 240 241 242 245 247 248 249 244 238 238 237 230 230 233 236 242 247 249 251 253 253 243 236 238 237 238 241 242 247 246 244 244 235 228 233 237 241 243 243 245 246 244 244 243 237 230 230 233 227
254 252 251 251 251 252 254 256 259 260 261 262 263 264 265 266 267 265 263 263 262 260 261 262 263 261 259 259 260 259 257 252 239 236 238 233 232 236 237 238 239 239 241 244 247 249 242 237 240 237 230 231 234 236 242 246 248 250 248 246 239 233 234 237 239 240 238 238 241 244 247 238 229 234 237 236 238 239 238 238 238 240 241 235 228 230 232 223
249 248 248 249 251 253 254 257 259 259 260 262 262 263 265 266 266 266 266 266 264 261 259 260 261 263 264 264 264 263 257 249 236 233 234 228 228 233 235 236 237 237 240 243 246 246 239 237 240 237 231 231 234 237 240 241 242 242 241 240 235 231 231 233 237 239 236 234 236 241 247 245 234 233 237 235 232 230 229 229 231 236 240 237 231 228 222 214
246 246 247 249 252 254 256 257 259 259 260 261 262 263 265 267 266 265 266 266 265 263 261 261 260 262 264 263 263 260 254 247 236 230 228 222 222 228 230 232 233 233 237 239 240 238 232 233 237 235 231 230 233 237 238 236 237 239 238 236 234 230 230 232 236 239 240 238 235 236 244 248 242 237 238 236 226 220 219 223 226 230 236 236 235 226 209 205
245 246 248 250 253 256 257 257 258 259 260 260 262 264 265 266 266 265 266 265 263 262 262 261 259 259 259 257 257 254 249 245 236 231 228 222 221 226 229 230 231 231 234 236 233 231 232 232 234 234 231 230 233 236 236 235 237 239 240 239 237 235 234 235 238 239 241 241 237 237 242 246 246 242 239 234 220 213 216 224 224 225 229 230 233 224 208 206
246 248 250 251 253 257 259 258 259 260 261 261 261 263 264 264 264 264 264 263 261 261 260 259 257 256 255 254 253 249 246 243 237 233 230 223 221 225 227 229 231 232 236 236 230 230 234 234 235 235 232 231 233 235 236 236 238 240 242 243 242 241 240 240 242 241 242 243 240 239 241 242 243 241 238 231 217 211 218 227 224 222 227 226 227 223 213 211
248 250 251 252 255 258 261 261 260 261 261 261 261 261 261 261 262 262 261 261 260 257 256 255 253 251 250 249 247 244 243 243 239 235 229 225 223 224 226 229 232 235 239 241 235 235 239 238 238 237 233 232 234 237 239 239 240 243 244 245 245 244 242 242 244 244 245 245 238 236 236 236 240 240 235 228 217 214 220 224 219 216 219 218 217 221 221 222
250 253 254 255 256 259 261 262 261 260 259 259 259 259 258 257 258 259 257 257 256 254 253 252 250 247 243 242 241 239 237 238 238 235 229 226 224 223 225 228 231 234 237 238 232 234 239 237 236 235 231 231 233 237 240 241 243 245 245 245 244 243 242 242 244 245 248 245 234 233 231 229 236 239 232 225 219 219 222 221 217 215 216 214 213 216 222 229
254 257 258 258 257 257 258 260 261 260 257 256 256 257 256 257 256 254 253 254 255 254 254 253 250 246 240 237 237 236 234 234 236 235 231 226 222 218 218 222 223 224 226 226 223 226 233 232 230 229 228 229 232 236 240 241 242 242 242 242 241 240 241 243 246 248 249 242 234 235 229 226 233 237 232 225 220 221 223 221 218 218 217 217 217 218 222 228
257 259 259 258 256 255 255 256 258 258 256 255 255 256 257 257 255 250 249 253 255 255 253 252 250 248 241 234 234 234 234 233 235 237 237 232 223 215 215 221 223 222 223 223 221 223 228 231 228 224 223 225 227 231 234 235 236 236 237 237 238 240 242 244 246 247 247 242 237 236 230 226 230 234 234 227 220 222 225 224 224 223 222 220 220 223 226 228
258 258 258 257 256 254 253 254 256 258 258 256 256 257 257 255 252 249 250 253 255 254 250 250 250 249 243 235 232 233 235 235 236 238 240 238 230 220 218 223 227 229 228 227 226 224 224 228 227 221 219 221 222 222 226 231 235 237 239 241 242 243 244 243 244 245 246 244 240 237 231 227 229 232 233 230 223 222 225 229 231 231 230 228 225 226 230 231
255 255 255 256 256 255 254 254 257 258 259 257 256 257 256 254 254 253 254 256 256 254 250 248 248 248 246 240 234 232 234 237 238 239 240 240 237 229 224 226 230 232 233 230 228 226 222 222 225 223 219 219 221 222 225 229 233 237 242 246 246 244 241 241 243 245 246 245 243 239 232 226 227 230 232 232 227 223 225 230 233 236 237 237 235 235 235 238
252 252 253 255 256 255 255 254 255 257 258 258 257 257 257 257 258 258 257 258 257 253 247 244 244 246 246 244 239 234 233 235 238 241 242 241 240 235 230 229 232 235 236 234 232 230 224 217 218 222 220 219 223 225 227 231 233 236 240 242 240 240 240 241 245 248 246 244 242 238 232 226 225 228 231 233 231 226 226 229 233 237 239 241 244 248 249 248
249 251 253 255 254 254 253 253 253 255 257 258 258 258 258 258 259 259 258 258 255 250 245 242 243 244 245 244 242 239 237 236 238 241 243 244 242 239 235 231 232 234 236 236 236 235 230 219 215 219 219 221 224 225 226 231 234 235 234 232 232 236 241 243 247 250 250 248 244 239 233 227 226 229 231 234 234 230 229 230 233 238 240 244 247 250 255 252
248 250 251 252 252 251 251 251 252 254 256 258 259 259 260 260 260 261 259 257 254 249 243 241 242 243 244 243 243 243 242 240 240 240 242 243 243 242 239 235 233 233 234 235 236 236 232 222 217 219 219 220 224 224 225 228 231 232 230 228 227 229 235 239 244 248 247 247 248 243 237 232 230 231 232 235 237 235 234 233 236 240 242 246 247 250 254 249
247 247 247 247 248 248 248 248 250 253 256 259 261 263 264 265 265 264 261 258 255 249 243 239 239 242 243 242 241 242 244 244 243 241 241 243 245 245 243 240 238 235 234 234 236 236 233 222 217 220 220 219 222 224 224 224 225 227 228 228 227 228 231 235 240 243 241 241 244 245 243 239 235 234 235 238 240 241 242 242 244 247 247 248 248 253 256 247
243 242 242 242 242 242 244 245 248 251 255 260 266 268 270 271 270 268 263 259 256 252 247 241 237 238 241 241 240 239 242 244 244 243 243 245 247 248 247 243 240 238 236 235 236 237 234 224 216 218 220 218 220 224 225 223 222 224 226 226 226 228 230 233 238 241 241 241 242 246 247 245 242 240 240 241 243 245 247 249 253 256 257 256 252 256 258 243
238 238 236 234 234 236 239 242 246 252 259 266 272 274 275 278 278 274 267 261 256 253 250 246 241 237 237 238 239 239 239 241 242 244 246 247 247 248 249 245 240 239 237 236 236 237 236 228 216 216 222 221 221 225 226 225 224 224 225 225 225 227 229 232 237 240 243 245 246 250 252 251 249 247 246 246 246 248 251 255 261 262 263 264 258 261 262 230
233 230 227 227 227 228 231 240 249 258 269 278 283 287 290 292 289 283 274 265 258 254 251 248 245 242 238 236 236 238 239 240 241 243 245 247 247 248 251 252 249 245 241 238 236 236 236 230 218 214 221 223 224 227 228 226 225 225 226 226 227 229 229 231 235 239 242 244 247 251 253 254 255 253 252 253 252 255 256 259 264 263 264 264 258 258 255 217
226 222 220 220 220 223 232 245 257 269 281 289 292 295 298 298 293 286 279 270 262 257 254 251 248 246 243 239 236 236 238 239 240 241 242 244 246 247 250 253 254 253 250 245 241 238 236 231 223 217 219 223 224 226 228 228 227 226 227 227 229 230 230 230 232 236 239 241 244 249 252 255 257 255 255 255 255 257 257 260 264 261 259 258 253 255 249 231
220 216 213 214 216 225 239 251 263 273 280 284 289 295 299 300 295 285 274 268 262 259 256 253 251 248 246 244 240 238 237 237 238 240 241 241 244 246 248 250 253 254 254 253 251 248 241 234 230 225 223 223 225 226 229 230 230 230 229 228 229 231 231 231 232 234 238 241 243 247 252 258 261 259 255 253 253 253 255 261 262 255 252 249 249 256 244 227
214 211 210 213 219 230 243 258 269 275 279 284 291 300 306 308 300 282 264 256 256 259 259 258 255 252 249 247 244 241 239 238 237 238 240 241 242 245 248 250 250 251 253 255 256 257 250 239 236 234 230 228 227 226 228 230 232 233 232 230 230 232 233 234 235 237 239 242 244 246 249 255 260 259 256 254 254 254 257 262 258 250 255 253 248 250 236 220
209 208 211 216 224 237 255 276 282 285 290 294 299 307 313 315 304 279 258 253 259 266 265 262 260 258 255 251 247 244 241 240 238 238 239 240 242 244 246 248 249 250 252 254 255 257 255 247 242 243 243 238 229 224 225 228 231 234 236 234 232 233 235 237 238 240 241 243 245 246 247 250 253 254 255 256 256 255 257 262 261 257 262 261 250 244 236 229
204 206 213 220 230 248 271 286 287 289 295 299 303 310 318 321 309 279 257 255 263 269 269 264 261 261 260 257 254 249 244 241 239 238 238 239 240 242 244 245 246 248 250 251 252 253 254 249 243 243 250 246 229 222 225 230 232 235 238 238 235 235 237 239 240 241 242 243 245 246 247 247 249 252 256 258 257 257 258 261 264 262 263 268 263 246 234 228
203 207 215 223 233 254 270 277 281 288 296 303 309 314 321 325 316 287 261 255 260 266 268 266 263 261 261 260 258 255 249 243 240 238 237 238 238 239 241 243 244 246 248 249 249 250 251 249 246 242 245 244 231 224 227 233 236 238 240 241 239 237 238 241 243 243 244 245 245 246 246 247 248 252 256 258 256 257 260 261 262 262 263 267 267 255 240 227
203 209 217 224 236 256 264 270 278 290 304 310 313 319 324 324 318 297 271 259 260 265 269 269 265 261 260 262 262 259 253 246 241 238 237 237 237 238 239 241 242 244 247 248 249 251 252 251 250 249 247 245 238 232 231 233 237 239 241 242 242 240 239 241 244 246 246 247 248 248 248 248 250 253 255 255 253 254 258 260 261 261 260 262 265 260 251 231
203 208 214 219 234 253 261 270 284 304 320 320 319 322 324 321 317 306 287 270 264 265 269 273 273 267 260 262 269 266 255 246 241 238 236 235 236 237 239 240 242 243 245 246 246 249 251 250 249 249 251 250 247 243 238 236 237 239 240 241 242 243 241 240 243 247 248 249 250 250 250 250 252 253 254 253 252 253 255 258 262 263 261 268 273 259 239 226
202 206 208 211 230 254 269 285 303 319 330 328 322 321 321 320 318 316 308 289 272 268 271 276 277 271 260 258 268 269 256 246 240 238 235 234 234 235 237 239 241 243 243 240 238 239 243 244 242 244 247 248 249 249 247 242 239 239 239 239 240 243 243 241 242 245 248 249 250 251 252 253 254 255 256 256 256 256 258 261 263 264 264 268 268 250 231 226